Location: Albany
(35.0000°S, 118.0000°E)
Time: 19:26:25
(UTC-04:00)

Cosmos 1933 - Visible Passes

Search period start: 20 October 2017 00:00
Search period end: 30 October 2017 00:00
Orbit: 549 x 564 km, 82.5° (Epoch: 19 October)

Date Brightness Start Highest point End Pass type
(mag) Time Alt. Az. Time Alt. Az. Time Alt. Az.
20 Oct 4.4 08:49:39 10° SSW 08:52:41 44° SW 08:52:41 44° SW visible
21 Oct 4.2 08:47:28 10° SSW 08:50:58 49° WSW 08:50:58 49° WSW visible
22 Oct 5.4 07:11:14 10° SE 07:12:27 11° ESE 07:13:24 10° E visible
22 Oct 4.3 08:45:17 10° SSW 08:49:13 44° W 08:49:17 44° W visible
23 Oct 5.3 07:08:19 10° SE 07:10:15 13° ESE 07:11:46 11° E visible
23 Oct 4.6 08:43:07 10° SSW 08:46:58 38° W 08:47:39 35° WNW visible
24 Oct 5.2 07:05:38 10° SE 07:08:04 15° ESE 07:10:10 11° ENE visible
24 Oct 5.0 08:40:59 10° SSW 08:44:41 32° W 08:46:04 25° NW visible
25 Oct 5.0 07:03:03 10° SSE 07:05:52 17° ESE 07:08:37 10° ENE visible
25 Oct 5.3 08:38:52 10° SSW 08:42:24 27° W 08:44:31 18° NW visible
26 Oct 4.8 07:00:33 10° SSE 07:03:39 20° ESE 07:06:44 10° NE visible
26 Oct 5.6 08:36:47 10° SW 08:40:07 24° W 08:43:02 12° NW visible
27 Oct 4.6 06:58:06 10° SSE 07:01:27 23° ESE 07:04:47 10° NE visible
27 Oct 5.8 08:34:44 10° SW 08:37:50 20° W 08:40:54 10° NW visible
28 Oct 4.4 06:55:40 10° SSE 06:59:14 27° ESE 07:02:45 10° NE visible
28 Oct 6.1 08:32:45 10° SW 08:35:32 18° W 08:38:18 10° NW visible
29 Oct 6.2 08:30:49 10° SW 08:33:14 15° W 08:35:38 10° WNW visible
